Location: Niles Junction
(37.5763°N, 121.9714°W)
Time: 04:35:38
(UTC+00:00)

Cosmos 1315 Rocket - Pass Details

Date: 29 October 2020
Orbit: 530 x 567 km, 81.2° (Epoch: 23 November)

Event Time Altitude Azimuth Distance (km) Brightness Sun altitude
Rises 13:17:59 0° 357° (N) 2,765 6.3 -14.9°
Reaches altitude 10° 13:20:14 10° 3° (N) 1,868 5.5 -14.5°
Maximum altitude 13:24:13 47° 78° (ENE) 753 4.0 -13.7°
Drops below altitude 10° 13:28:12 10° 153° (SSE) 1,859 6.0 -12.9°
Sets 13:30:26 0° 159° (SSE) 2,750 6.8 -12.5°
